weather.gov     
National Weather Service

Regional Weather Roundup
NWS Homepage
This page is being discontinued on March 12, 2014.
The same data is available at this site. Please update your bookmarks.
Thank you, and we apologize for the inconvenience.
Please send an email to SR-SRH.Webmaster@noaa.gov with any concerns.


Current Version
Previous Version:    01  02  03  04  05  06  07  08  09  10  11  12  13  14  15  16  17  18  19  20  21  22  23  24  25  26  
[Printable]
157
ASUS41 KPHI 230110
RWRPHI

REGIONAL WEATHER ROUNDUP
NATIONAL WEATHER SERVICE MOUNT HOLLY NJ
800 PM EST SAT NOV 22 2014

NOTE:  "FAIR" INDICATES FEW OR NO CLOUDS BELOW 12,000 FEET WITH NO
SIGNIFICANT WEATHER AND/OR OBSTRUCTIONS TO VISIBILITY.

 * = STATION DOES NOT REPORT PRECIPITATION (E.G. RAIN, SNOW, ETC.)
        OR FOG.

NJZ015>026-230200-
SOUTHERN NEW JERSEY

CITY           SKY/WX    TMP DP  RH WIND       PRES   REMARKS
POMONA         CLOUDY    42  23  46 SW9       30.31S
RIO GRANDE*    PTCLDY    43  21  42 SW12      30.31S
MILLVILLE      CLOUDY    42  24  49 SW8       30.31F
WRIGHTSTOWN    CLOUDY    42  22  46 SW10      30.26S
MOUNT HOLLY    CLOUDY    43  22  43 SW7       30.28F
TRENTON        CLOUDY    43  18  36 SW8G18    30.27S

$$
NJZ001>014-230200-
NORTHERN NEW JERSEY

CITY           SKY/WX    TMP DP  RH WIND       PRES   REMARKS
SUSSEX         MOCLDY    39  17  41 SW7       30.19F WCI  34
ANDOVER*         N/A     38  18  44 SW6       30.21S WCI  33
MORRISTOWN     CLEAR     41  18  38 W8G24     30.23F
NEWARK         CLOUDY    43  18  36 SW16G23   30.23F
TETERBORO      CLOUDY    43  17  35 SW8       30.22F
CALDWELL       MOCLDY    41  17  38 W7        30.23F
SOMERVILLE     CLOUDY    42  18  37 MISG      30.24F
ALLAIRE*       PTCLDY    41  19  42 SW13G18   30.26S
TOMS RIVER*    CLOUDY    43  21  42 W5        30.29S

$$
PAZ043-044-047-054-055-060>062-066>071-230200-
EASTERN PENNSYLVANIA

CITY           SKY/WX    TMP DP  RH WIND       PRES   REMARKS
PHILADELPHIA   CLOUDY    44  22  41 SW12      30.30F
NORTH PHILA    CLOUDY    45  19  35 SW10      30.29F
BLUE BELL      CLOUDY    43  23  45 SW5       30.27S
DOYLESTOWN     CLOUDY    40  19  43 SW7       30.25F
QUAKERTOWN*    CLOUDY    39  19  45 SW6       30.26F WCI  35
POTTSTOWN      CLOUDY    40  20  44 SW3       30.28S
LANCASTER      MOCLDY    35  22  58 CALM      30.26F
COATESVILLE    CLOUDY    39  23  52 SW5       30.26F
READING        CLOUDY    41  21  44 SW5       30.25F
ALLENTOWN      CLOUDY    41  18  39 SW8       30.25S
MOUNT POCONO   CLOUDY    36  15  42 W12G22    30.15S WCI  28
HAZLETON       CLOUDY    37  18  44 S3        30.21S
WILKES BARRE   CLOUDY    38  17  42 SW6       30.17F WCI  33

$$
DEZALL-MDZ008-012-015-019-020-230200-
DELAWARE AND EASTERN MARYLAND

CITY           SKY/WX    TMP DP  RH WIND       PRES   REMARKS
WILMINGTON     CLOUDY    44  20  38 S8        30.30F
DOVER          PTCLDY    37  24  59 S8        30.29F WCI  31
GEORGETOWN     CLEAR     36  24  62 S8        30.33F WCI  30
PATUXENT       CLEAR     42  19  39 VRB6      30.31F
OCEAN CITY     CLEAR     42  29  59 SW12      30.33F
WALLOPS ISLAND CLEAR     35  24  64 SW8       30.35F WCI  29
CAMBRIDGE      CLEAR     36  28  75 SE5       30.31F WCI  32
SALISBURY      CLEAR     40  24  53 SW5       30.33F

$$
PAZ001-021-NYZ056-072-MDZ011-DCZ001-230200-
OTHER NEARBY LOCATIONS

CITY           SKY/WX    TMP DP  RH WIND       PRES   REMARKS
HARRISBURG     MOCLDY    32  21  64 E3        30.24F
STATE COLLEGE  CLOUDY    34  27  75 CALM      30.15F
WILLIAMSPORT   CLOUDY    33  28  81 CALM      30.19F
BINGHAMTON     CLOUDY    37  28  70 SW16      30.06F WCI  28
NEW YORK CITY  MOCLDY    44  18  35 W8G17     30.24F
BALTIMORE      PTCLDY    42  15  33 CALM      30.27F
WASHINGTON DC  CLEAR     42  26  53 S8        30.30F

$$




U.S. Dept. of Commerce
NOAA National Weather Service
1325 East West Highway
Silver Spring, MD 20910
E-mail: w-nws.webmaster@noaa.gov
Page last modified: May 16, 2007
NATIONAL WEATHER SERVICE: for Safety, for Work, for Fun - FOR LIFE